When you browse on this site, cookies collect data to enhance your experience and personalize the content and advertising you see.
Visit our Privacy Policy to learn more. By continuing to use the site, you agree to this use of cookies and data.
  • In Lithuania
  • List of Countries
  • For 7 days
  • Water Temperature
  • Weather Map
  • Weather Widgets
  • user-avatar
    Login

    Hourly Weather Konstantyna

    Today, 23 August, Friday

    Time Temperature Precipitation Wind Pressure Humidity
    00:00 +25°C° 0.4 mm 1 mps 712 mmHg 82%
    01:00 +24°C° 0.1 mm 1 mps 711 mmHg 84%
    02:00 +24°C° 0.1 mm 1 mps 711 mmHg 86%
    03:00 +24°C° 0.1 mm 1 mps 711 mmHg 87%
    04:00 +24°C° 0.1 mm 1 mps 711 mmHg 87%
    05:00 +24°C° 0.1 mm 1 mps 711 mmHg 87%
    06:00 +24°C° 0.1 mm 1 mps 711 mmHg 87%
    07:00 +25°C° 0 mm 1 mps 712 mmHg 82%
    08:00 +26°C° 0 mm 1 mps 712 mmHg 77%
    09:00 +27°C° 0 mm 1 mps 713 mmHg 71%
    10:00 +28°C° 0.2 mm 1 mps 713 mmHg 65%
    11:00 +29°C° 0.2 mm 1 mps 713 mmHg 59%
    12:00 +31°C° 0.2 mm 1 mps 712 mmHg 52%
    13:00 +31°C° 0.1 mm 2 mps 712 mmHg 49%
    14:00 +33°C° 0.1 mm 3 mps 712 mmHg 46%
    15:00 +34°C° 0.1 mm 3 mps 712 mmHg 42%
    16:00 +31°C° 0.3 mm 3 mps 711 mmHg 51%
    17:00 +29°C° 0.3 mm 4 mps 711 mmHg 59%
    18:00 +27°C° 0.3 mm 4 mps 711 mmHg 67%
    19:00 +26°C° 0.3 mm 3 mps 711 mmHg 71%
    20:00 +26°C° 0.3 mm 3 mps 711 mmHg 76%
    21:00 +25°C° 0.3 mm 2 mps 711 mmHg 81%
    22:00 +24°C° 0 mm 2 mps 711 mmHg 82%
    23:00 +24°C° 0 mm 1 mps 711 mmHg 83%

    Tomorrow, 24 August, Saturday

    Time Temperature Precipitation Wind Pressure Humidity
    00:00 +24°C° 0 mm 1 mps 711 mmHg 84%
    01:00 +24°C° 0.1 mm 1 mps 710 mmHg 85%
    02:00 +24°C° 0.1 mm 1 mps 710 mmHg 86%
    03:00 +23°C° 0.1 mm 1 mps 710 mmHg 87%
    04:00 +23°C° 0 mm 1 mps 710 mmHg 87%
    05:00 +23°C° 0 mm 1 mps 710 mmHg 86%
    06:00 +23°C° 0 mm 1 mps 710 mmHg 86%
    07:00 +25°C° 0.6 mm 1 mps 711 mmHg 78%
    08:00 +26°C° 0.6 mm 1 mps 711 mmHg 70%
    09:00 +28°C° 0.6 mm 2 mps 712 mmHg 62%
    10:00 +29°C° 0.6 mm 2 mps 712 mmHg 56%
    11:00 +31°C° 0.6 mm 3 mps 712 mmHg 50%
    12:00 +33°C° 0.6 mm 3 mps 712 mmHg 43%
    13:00 +32°C° 1.9 mm 4 mps 711 mmHg 50%
    14:00 +29°C° 1.9 mm 4 mps 711 mmHg 57%
    15:00 +28°C° 1.9 mm 5 mps 710 mmHg 64%
    16:00 +27°C° 1.1 mm 4 mps 710 mmHg 66%
    17:00 +26°C° 1.1 mm 3 mps 710 mmHg 68%
    18:00 +25°C° 1.1 mm 2 mps 710 mmHg 71%
    19:00 +25°C° 0 mm 2 mps 711 mmHg 73%
    20:00 +25°C° 0 mm 1 mps 711 mmHg 75%
    21:00 +24°C° 0 mm 1 mps 711 mmHg 76%
    22:00 +24°C° 0 mm 1 mps 711 mmHg 79%
    23:00 +23°C° 0 mm 1 mps 710 mmHg 81%

    Day after tomorrow, 25 August, Sunday

    Time Temperature Precipitation Wind Pressure Humidity
    00:00 +23°C° 0 mm 1 mps 710 mmHg 83%
    01:00 +23°C° 0 mm 1 mps 710 mmHg 83%
    02:00 +23°C° 0 mm 1 mps 710 mmHg 84%
    03:00 +22°C° 0 mm 1 mps 710 mmHg 85%
    04:00 +22°C° 0 mm 1 mps 710 mmHg 84%
    05:00 +23°C° 0 mm 1 mps 710 mmHg 83%
    06:00 +23°C° 0 mm 1 mps 710 mmHg 82%
    07:00 +24°C° 0 mm 1 mps 710 mmHg 74%
    08:00 +26°C° 0 mm 1 mps 711 mmHg 67%
    09:00 +27°C° 0 mm 1 mps 711 mmHg 59%
    10:00 +29°C° 0 mm 1 mps 711 mmHg 54%
    11:00 +30°C° 0 mm 2 mps 711 mmHg 48%
    12:00 +32°C° 0 mm 2 mps 711 mmHg 42%
    13:00 +32°C° 0.1 mm 2 mps 711 mmHg 42%
    14:00 +33°C° 0.1 mm 3 mps 710 mmHg 41%
    15:00 +33°C° 0.1 mm 3 mps 710 mmHg 41%
    16:00 +31°C° 0 mm 3 mps 710 mmHg 48%
    17:00 +29°C° 0 mm 3 mps 709 mmHg 55%
    18:00 +28°C° 0 mm 4 mps 709 mmHg 62%
    19:00 +27°C° 0 mm 3 mps 710 mmHg 66%
    20:00 +26°C° 0 mm 2 mps 710 mmHg 71%
    21:00 +25°C° 0 mm 2 mps 710 mmHg 75%
    22:00 +25°C° 0 mm 1 mps 710 mmHg 76%
    23:00 +25°C° 0 mm 1 mps 710 mmHg 78%

    26 August, Monday

    Time Temperature Precipitation Wind Pressure Humidity
    00:00 +24°C° 0 mm 1 mps 710 mmHg 79%
    01:00 +24°C° 0 mm 1 mps 709 mmHg 79%
    02:00 +22°C° 0 mm 0 mps 709 mmHg 79%
    03:00 +22°C° 0 mm 0 mps 709 mmHg 80%
    04:00 +22°C° 0 mm 0 mps 709 mmHg 77%
    05:00 +23°C° 0 mm 0 mps 710 mmHg 75%
    06:00 +23°C° 0 mm 0 mps 710 mmHg 72%
    07:00 +27°C° 0 mm 1 mps 711 mmHg 63%
    08:00 +29°C° 0 mm 1 mps 711 mmHg 53%
    09:00 +31°C° 0 mm 1 mps 712 mmHg 44%
    10:00 +32°C° 0 mm 2 mps 711 mmHg 37%
    11:00 +35°C° 0 mm 2 mps 711 mmHg 31%
    12:00 +36°C° 0 mm 2 mps 711 mmHg 25%
    13:00 +36°C° 0 mm 3 mps 711 mmHg 24%
    14:00 +37°C° 0 mm 3 mps 711 mmHg 24%
    15:00 +37°C° 0 mm 3 mps 710 mmHg 24%
    16:00 +35°C° 0 mm 3 mps 710 mmHg 32%
    17:00 +33°C° 0 mm 3 mps 710 mmHg 41%
    18:00 +31°C° 0 mm 3 mps 710 mmHg 49%
    19:00 +30°C° 0 mm 2 mps 710 mmHg 54%
    20:00 +29°C° 0 mm 2 mps 710 mmHg 60%
    21:00 +28°C° 0 mm 1 mps 710 mmHg 65%
    22:00 +28°C° 0 mm 1 mps 710 mmHg 66%
    23:00 +27°C° 0 mm 1 mps 710 mmHg 67%

    27 August, Tuesday

    Time Temperature Precipitation Wind Pressure Humidity
    00:00 +25°C° 0 mm 0 mps 711 mmHg 68%
    01:00 +25°C° 0 mm 0 mps 710 mmHg 69%
    02:00 +24°C° 0 mm 0 mps 710 mmHg 70%
    03:00 +24°C° 0 mm 0 mps 710 mmHg 70%
    04:00 +24°C° 0 mm 0 mps 710 mmHg 68%
    05:00 +25°C° 0 mm 0 mps 711 mmHg 67%
    06:00 +25°C° 0 mm 0 mps 711 mmHg 65%
    07:00 +29°C° 0 mm 1 mps 712 mmHg 55%
    08:00 +31°C° 0 mm 1 mps 712 mmHg 45%
    09:00 +32°C° 0 mm 1 mps 713 mmHg 35%
    10:00 +33°C° 0 mm 1 mps 712 mmHg 32%
    11:00 +34°C° 0 mm 1 mps 712 mmHg 29%
    12:00 +36°C° 0 mm 2 mps 712 mmHg 27%
    13:00 +36°C° 0 mm 2 mps 712 mmHg 26%
    14:00 +36°C° 0 mm 2 mps 711 mmHg 26%
    15:00 +36°C° 0 mm 2 mps 711 mmHg 25%
    16:00 +35°C° 0 mm 2 mps 711 mmHg 29%
    17:00 +34°C° 0 mm 2 mps 711 mmHg 33%
    18:00 +32°C° 0 mm 2 mps 711 mmHg 37%
    19:00 +31°C° 0 mm 2 mps 711 mmHg 39%
    20:00 +31°C° 0 mm 1 mps 711 mmHg 42%
    21:00 +28°C° 0 mm 0 mps 711 mmHg 45%
    22:00 +30°C° 0 mm 1 mps 711 mmHg 45%
    23:00 +29°C° 0 mm 1 mps 711 mmHg 45%

    28 August, Wednesday

    Time Temperature Precipitation Wind Pressure Humidity
    00:00 +29°C° 0 mm 1 mps 711 mmHg 45%
    01:00 +29°C° 0 mm 1 mps 711 mmHg 44%
    02:00 +29°C° 0 mm 1 mps 711 mmHg 43%
    03:00 +28°C° 0 mm 1 mps 710 mmHg 42%
    04:00 +28°C° 0 mm 2 mps 711 mmHg 44%
    05:00 +27°C° 0 mm 3 mps 711 mmHg 45%
    06:00 +27°C° 0 mm 4 mps 711 mmHg 47%
    07:00 +27°C° 0 mm 3 mps 711 mmHg 45%
    08:00 +28°C° 0 mm 2 mps 712 mmHg 44%
    09:00 +28°C° 0 mm 1 mps 712 mmHg 42%
    10:00 +28°C° 0.2 mm 2 mps 712 mmHg 43%
    11:00 +29°C° 0.2 mm 2 mps 712 mmHg 44%
    12:00 +29°C° 0.2 mm 3 mps 712 mmHg 45%
    13:00 +29°C° 0.2 mm 4 mps 712 mmHg 44%
    14:00 +29°C° 0.2 mm 4 mps 711 mmHg 44%
    15:00 +30°C° 0.2 mm 4 mps 711 mmHg 43%
    16:00 +28°C° 0.3 mm 4 mps 711 mmHg 49%
    17:00 +27°C° 0.3 mm 4 mps 711 mmHg 56%
    18:00 +26°C° 0.3 mm 4 mps 710 mmHg 62%
    19:00 +25°C° 0 mm 3 mps 710 mmHg 64%
    20:00 +25°C° 0 mm 3 mps 710 mmHg 66%
    21:00 +24°C° 0 mm 2 mps 711 mmHg 68%
    22:00 +24°C° 0 mm 2 mps 710 mmHg 71%
    23:00 +24°C° 0 mm 2 mps 710 mmHg 73%
    Show more